Time,TemperatureF,DewpointF,PressureIn,WindDirection,WindDirectionDegrees,WindSpeedMPH,WindSpeedGustMPH,Humidity,HourlyPrecipIn,Conditions,Clouds,dailyrainin,SoftwareType,DateUTC
2013-03-19 00:00:00,51.4,44.8,30.07,ESE,103,0.0,1.0,78,0.00,,---,0.00,VWS V14.01,2013-03-19 07:00:00,
2013-03-19 00:05:00,51.2,44.6,30.07,ESE,103,0.0,1.0,78,0.00,,---,0.00,VWS V14.01,2013-03-19 07:05:00,
2013-03-19 00:10:00,50.8,44.5,30.07,ESE,103,0.0,1.0,79,0.00,,---,0.00,VWS V14.01,2013-03-19 07:10:00,
2013-03-19 00:15:00,50.6,44.7,30.07,East,93,0.0,1.0,80,0.00,,---,0.00,VWS V14.01,2013-03-19 07:15:00,
2013-03-19 00:20:00,50.4,44.8,30.07,East,92,0.0,2.0,81,0.00,,---,0.00,VWS V14.01,2013-03-19 07:20:00,
2013-03-19 00:25:00,50.1,44.5,30.07,East,92,0.0,1.0,81,0.00,,---,0.00,VWS V14.01,2013-03-19 07:25:00,
2013-03-19 00:30:00,49.8,44.5,30.07,ESE,121,0.0,2.0,82,0.00,,---,0.00,VWS V14.01,2013-03-19 07:30:00,
2013-03-19 00:35:00,49.5,44.2,30.07,ESE,121,0.0,0.0,82,0.00,,---,0.00,VWS V14.01,2013-03-19 07:35:00,
2013-03-19 00:40:00,49.2,44.0,30.07,ESE,121,0.0,0.0,82,0.00,,---,0.00,VWS V14.01,2013-03-19 07:40:00,
2013-03-19 00:45:00,49.1,43.8,30.07,ESE,121,0.0,0.0,82,0.00,,---,0.00,VWS V14.01,2013-03-19 07:45:00,
2013-03-19 00:50:00,48.8,43.9,30.07,ESE,121,0.0,0.0,83,0.00,,---,0.00,VWS V14.01,2013-03-19 07:50:00,
2013-03-19 00:55:00,48.6,43.7,30.07,ESE,120,0.0,0.0,83,0.00,,---,0.00,VWS V14.01,2013-03-19 07:55:00,
2013-03-19 01:00:00,48.4,43.5,30.07,ESE,120,0.0,0.0,83,0.00,,---,0.00,VWS V14.01,2013-03-19 08:00:00,
2013-03-19 01:05:00,48.1,43.2,30.07,ESE,120,0.0,0.0,83,0.00,,---,0.00,VWS V14.01,2013-03-19 08:05:00,
2013-03-19 01:10:00,47.9,43.0,30.07,ESE,120,0.0,0.0,83,0.00,,---,0.00,VWS V14.01,2013-03-19 08:10:00,
2013-03-19 01:15:00,47.7,43.1,30.07,ESE,120,0.0,0.0,84,0.00,,---,0.00,VWS V14.01,2013-03-19 08:15:00,
2013-03-19 01:20:00,47.4,42.8,30.07,ESE,120,0.0,0.0,84,0.00,,---,0.00,VWS V14.01,2013-03-19 08:20:00,
2013-03-19 01:25:00,47.3,42.7,30.07,ESE,120,0.0,0.0,84,0.00,,---,0.00,VWS V14.01,2013-03-19 08:25:00,
2013-03-19 01:30:00,47.1,42.5,30.07,ESE,120,0.0,0.0,84,0.00,,---,0.00,VWS V14.01,2013-03-19 08:30:00,
2013-03-19 01:35:00,47.0,42.7,30.07,ESE,120,0.0,0.0,85,0.00,,---,0.00,VWS V14.01,2013-03-19 08:35:00,
2013-03-19 01:40:00,46.9,42.6,30.07,ESE,120,0.0,0.0,85,0.00,,---,0.00,VWS V14.01,2013-03-19 08:40:00,
2013-03-19 01:45:00,46.9,42.6,30.07,ESE,120,0.0,0.0,85,0.00,,---,0.00,VWS V14.01,2013-03-19 08:45:00,
2013-03-19 01:50:00,46.9,42.6,30.06,ESE,120,0.0,0.0,85,0.00,,---,0.00,VWS V14.01,2013-03-19 08:50:00,
2013-03-19 01:55:00,46.9,42.6,30.06,ESE,120,0.0,0.0,85,0.00,,---,0.00,VWS V14.01,2013-03-19 08:55:00,
2013-03-19 02:00:00,47.0,43.0,30.07,ESE,120,0.0,0.0,86,0.00,,---,0.00,VWS V14.01,2013-03-19 09:00:00,
2013-03-19 02:05:00,47.1,43.1,30.07,ESE,120,0.0,0.0,86,0.00,,---,0.00,VWS V14.01,2013-03-19 09:05:00,
2013-03-19 02:10:00,47.2,43.2,30.07,ESE,120,0.0,1.0,86,0.00,,---,0.00,VWS V14.01,2013-03-19 09:10:00,
2013-03-19 02:15:00,47.3,43.3,30.07,ESE,120,0.0,0.0,86,0.00,,---,0.00,VWS V14.01,2013-03-19 09:15:00,
2013-03-19 02:20:00,47.4,43.4,30.07,ESE,120,0.0,0.0,86,0.00,,---,0.00,VWS V14.01,2013-03-19 09:20:00,
2013-03-19 02:25:00,47.4,43.4,30.07,ESE,120,0.0,0.0,86,0.00,,---,0.00,VWS V14.01,2013-03-19 09:25:00,
2013-03-19 02:30:00,47.5,43.5,30.07,ESE,120,0.0,0.0,86,0.00,,---,0.00,VWS V14.01,2013-03-19 09:30:00,
2013-03-19 02:35:00,47.6,43.6,30.07,ESE,120,0.0,0.0,86,0.00,,---,0.00,VWS V14.01,2013-03-19 09:35:00,
2013-03-19 02:40:00,47.7,43.4,30.07,ESE,120,0.0,0.0,85,0.00,,---,0.00,VWS V14.01,2013-03-19 09:40:00,
2013-03-19 02:45:00,47.7,43.4,30.07,ESE,120,0.0,0.0,85,0.00,,---,0.00,VWS V14.01,2013-03-19 09:45:00,
2013-03-19 02:50:00,47.8,43.8,30.07,ESE,120,0.0,0.0,86,0.00,,---,0.00,VWS V14.01,2013-03-19 09:50:00,
2013-03-19 02:55:00,47.8,43.8,30.07,ESE,120,0.0,0.0,86,0.00,,---,0.00,VWS V14.01,2013-03-19 09:55:00,
2013-03-19 03:00:00,47.9,43.9,30.07,ESE,120,0.0,0.0,86,0.00,,---,0.00,VWS V14.01,2013-03-19 10:00:00,
2013-03-19 03:05:00,48.0,44.0,30.07,ESE,120,0.0,0.0,86,0.00,,---,0.00,VWS V14.01,2013-03-19 10:05:00,
2013-03-19 03:10:00,48.0,44.0,30.07,ESE,120,0.0,0.0,86,0.00,,---,0.00,VWS V14.01,2013-03-19 10:10:00,
2013-03-19 03:15:00,48.0,44.0,30.06,ESE,120,0.0,0.0,86,0.00,,---,0.00,VWS V14.01,2013-03-19 10:15:00,
2013-03-19 03:20:00,48.0,44.0,30.06,ESE,120,0.0,0.0,86,0.00,,---,0.00,VWS V14.01,2013-03-19 10:20:00,
2013-03-19 03:25:00,48.0,44.0,30.06,ESE,120,0.0,0.0,86,0.00,,---,0.00,VWS V14.01,2013-03-19 10:25:00,
2013-03-19 03:30:00,48.1,43.8,30.05,ESE,120,0.0,0.0,85,0.00,,---,0.00,VWS V14.01,2013-03-19 10:30:00,
2013-03-19 03:35:00,48.1,43.8,30.05,ESE,120,0.0,0.0,85,0.00,,---,0.00,VWS V14.01,2013-03-19 10:35:00,
2013-03-19 03:40:00,48.3,44.0,30.05,ESE,120,0.0,0.0,85,0.00,,---,0.00,VWS V14.01,2013-03-19 10:40:00,
2013-03-19 03:45:00,48.3,44.0,30.05,ESE,120,0.0,0.0,85,0.00,,---,0.00,VWS V14.01,2013-03-19 10:45:00,
2013-03-19 03:50:00,48.4,44.1,30.05,ESE,120,0.0,0.0,85,0.00,,---,0.00,VWS V14.01,2013-03-19 10:50:00,
2013-03-19 03:55:00,48.4,43.8,30.05,ESE,120,0.0,1.0,84,0.00,,---,0.00,VWS V14.01,2013-03-19 10:55:00,
2013-03-19 04:00:00,48.5,43.9,30.05,ESE,120,0.0,1.0,84,0.00,,---,0.00,VWS V14.01,2013-03-19 11:00:00,
2013-03-19 04:05:00,48.5,43.9,30.04,ESE,120,0.0,0.0,84,0.00,,---,0.00,VWS V14.01,2013-03-19 11:05:00,
2013-03-19 04:10:00,48.6,44.0,30.04,ESE,119,0.0,0.0,84,0.00,,---,0.00,VWS V14.01,2013-03-19 11:10:00,
2013-03-19 04:15:00,48.7,44.1,30.03,East,99,0.0,1.0,84,0.00,,---,0.00,VWS V14.01,2013-03-19 11:15:00,
2013-03-19 04:20:00,49.0,44.4,30.03,East,99,0.0,1.0,84,0.00,,---,0.00,VWS V14.01,2013-03-19 11:20:00,
2013-03-19 04:25:00,49.2,44.6,30.03,East,99,0.0,0.0,84,0.00,,---,0.00,VWS V14.01,2013-03-19 11:25:00,
2013-03-19 04:30:00,49.2,44.3,30.04,East,99,0.0,0.0,83,0.00,,---,0.00,VWS V14.01,2013-03-19 11:30:00,
2013-03-19 04:35:00,49.2,44.3,30.04,East,92,0.0,1.0,83,0.00,,---,0.00,VWS V14.01,2013-03-19 11:35:00,
2013-03-19 04:40:00,49.4,44.5,30.03,East,92,0.0,1.0,83,0.00,,---,0.00,VWS V14.01,2013-03-19 11:40:00,
2013-03-19 04:45:00,49.4,44.5,30.03,SE,124,0.0,2.0,83,0.00,,---,0.00,VWS V14.01,2013-03-19 11:45:00,
2013-03-19 04:50:00,49.4,44.5,30.04,East,91,2.0,2.0,83,0.00,,---,0.00,VWS V14.01,2013-03-19 11:50:00,
2013-03-19 04:55:00,49.3,44.4,30.04,East,94,0.0,1.0,83,0.00,,---,0.00,VWS V14.01,2013-03-19 11:55:00,
2013-03-19 05:00:00,49.2,44.3,30.04,East,94,0.0,1.0,83,0.00,,---,0.00,VWS V14.01,2013-03-19 12:00:00,
2013-03-19 05:05:00,49.2,44.3,30.05,East,94,0.0,0.0,83,0.00,,---,0.00,VWS V14.01,2013-03-19 12:05:00,
2013-03-19 05:10:00,49.2,44.3,30.04,East,94,0.0,0.0,83,0.00,,---,0.00,VWS V14.01,2013-03-19 12:10:00,
2013-03-19 05:15:00,49.2,44.3,30.04,East,94,0.0,0.0,83,0.00,,---,0.00,VWS V14.01,2013-03-19 12:15:00,
2013-03-19 05:20:00,49.2,44.3,30.04,East,94,0.0,0.0,83,0.00,,---,0.00,VWS V14.01,2013-03-19 12:20:00,
2013-03-19 05:25:00,49.2,44.3,30.05,East,94,0.0,0.0,83,0.00,,---,0.00,VWS V14.01,2013-03-19 12:25:00,
2013-03-19 05:30:00,49.2,44.3,30.05,East,94,0.0,0.0,83,0.00,,---,0.00,VWS V14.01,2013-03-19 12:30:00,
2013-03-19 05:35:00,49.2,44.3,30.05,East,94,0.0,0.0,83,0.00,,---,0.00,VWS V14.01,2013-03-19 12:35:00,
2013-03-19 05:40:00,49.2,44.3,30.05,East,94,0.0,0.0,83,0.00,,---,0.00,VWS V14.01,2013-03-19 12:40:00,
2013-03-19 05:45:00,49.2,44.3,30.05,East,94,0.0,0.0,83,0.00,,---,0.00,VWS V14.01,2013-03-19 12:45:00,
2013-03-19 05:50:00,49.2,44.3,30.06,East,94,0.0,0.0,83,0.00,,---,0.00,VWS V14.01,2013-03-19 12:50:00,
2013-03-19 05:55:00,49.2,44.3,30.06,East,94,0.0,0.0,83,0.00,,---,0.00,VWS V14.01,2013-03-19 12:55:00,
2013-03-19 06:00:00,49.2,44.3,30.06,East,94,0.0,0.0,83,0.00,,---,0.00,VWS V14.01,2013-03-19 13:00:00,
2013-03-19 06:05:00,49.2,44.3,30.06,East,94,0.0,0.0,83,0.00,,---,0.00,VWS V14.01,2013-03-19 13:05:00,
2013-03-19 06:10:00,49.2,44.3,30.06,East,94,0.0,0.0,83,0.00,,---,0.00,VWS V14.01,2013-03-19 13:10:00,
2013-03-19 06:15:00,49.2,44.3,30.06,East,94,0.0,0.0,83,0.00,,---,0.00,VWS V14.01,2013-03-19 13:15:00,
2013-03-19 06:20:00,49.2,44.3,30.06,East,94,0.0,0.0,83,0.00,,---,0.00,VWS V14.01,2013-03-19 13:20:00,
2013-03-19 06:25:00,49.2,44.3,30.06,East,94,0.0,0.0,83,0.00,,---,0.00,VWS V14.01,2013-03-19 13:25:00,
2013-03-19 06:30:00,49.2,44.3,30.06,East,94,0.0,0.0,83,0.00,,---,0.00,VWS V14.01,2013-03-19 13:30:00,
2013-03-19 06:35:00,49.2,44.3,30.06,East,94,0.0,0.0,83,0.00,,---,0.00,VWS V14.01,2013-03-19 13:35:00,
2013-03-19 06:40:00,49.2,44.3,30.06,East,94,0.0,0.0,83,0.00,,---,0.00,VWS V14.01,2013-03-19 13:40:00,
2013-03-19 06:45:00,49.2,44.3,30.06,East,94,0.0,0.0,83,0.00,,---,0.00,VWS V14.01,2013-03-19 13:45:00,
2013-03-19 06:50:00,49.2,44.3,30.06,East,94,0.0,0.0,83,0.00,,---,0.00,VWS V14.01,2013-03-19 13:50:00,
2013-03-19 06:55:00,49.2,44.3,30.06,East,94,0.0,0.0,83,0.00,,---,0.00,VWS V14.01,2013-03-19 13:55:00,
2013-03-19 07:00:00,49.2,44.3,30.06,East,94,0.0,0.0,83,0.00,,---,0.00,VWS V14.01,2013-03-19 14:00:00,
2013-03-19 07:05:00,49.2,44.3,30.06,East,94,0.0,0.0,83,0.00,,---,0.00,VWS V14.01,2013-03-19 14:05:00,
2013-03-19 07:10:00,49.2,44.3,30.07,East,94,0.0,0.0,83,0.00,,---,0.00,VWS V14.01,2013-03-19 14:10:00,
2013-03-19 07:15:00,49.2,44.3,30.07,East,94,0.0,0.0,83,0.00,,---,0.00,VWS V14.01,2013-03-19 14:15:00,
2013-03-19 07:20:00,49.2,44.3,30.08,East,94,0.0,0.0,83,0.00,,---,0.00,VWS V14.01,2013-03-19 14:20:00,
2013-03-19 07:25:00,49.2,44.3,30.07,East,94,0.0,0.0,83,0.00,,---,0.00,VWS V14.01,2013-03-19 14:25:00,
2013-03-19 07:30:00,49.2,44.3,30.08,East,94,0.0,0.0,83,0.00,,---,0.00,VWS V14.01,2013-03-19 14:30:00,
2013-03-19 07:35:00,49.2,44.3,30.08,East,94,0.0,0.0,83,0.00,,---,0.00,VWS V14.01,2013-03-19 14:35:00,
2013-03-19 07:40:00,49.2,44.3,30.08,East,94,0.0,0.0,83,0.00,,---,0.00,VWS V14.01,2013-03-19 14:40:00,
2013-03-19 07:45:00,44.1,40.8,30.08,East,94,0.0,0.0,88,0.00,,---,0.00,VWS V14.01,2013-03-19 14:45:00,
2013-03-19 07:50:00,44.3,41.3,30.08,East,94,0.0,0.0,89,0.00,,---,0.00,VWS V14.01,2013-03-19 14:50:00,
2013-03-19 07:55:00,44.7,41.4,30.08,East,94,0.0,0.0,88,0.00,,---,0.00,VWS V14.01,2013-03-19 14:55:00,
2013-03-19 08:00:00,45.0,42.0,30.08,East,94,0.0,0.0,89,0.00,,---,0.00,VWS V14.01,2013-03-19 15:00:00,
2013-03-19 08:05:00,45.5,42.2,30.08,East,94,0.0,0.0,88,0.00,,---,0.00,VWS V14.01,2013-03-19 15:05:00,
2013-03-19 08:10:00,46.0,42.7,30.08,East,94,0.0,0.0,88,0.00,,---,0.00,VWS V14.01,2013-03-19 15:10:00,
2013-03-19 08:15:00,46.6,43.2,30.08,East,94,0.0,0.0,88,0.00,,---,0.00,VWS V14.01,2013-03-19 15:15:00,
2013-03-19 08:20:00,47.2,43.5,30.08,East,94,0.0,0.0,87,0.00,,---,0.00,VWS V14.01,2013-03-19 15:20:00,
2013-03-19 08:25:00,48.0,44.3,30.08,East,93,1.0,1.0,87,0.00,,---,0.00,VWS V14.01,2013-03-19 15:25:00,
2013-03-19 08:30:00,49.2,44.9,30.08,East,86,3.0,5.0,85,0.00,,---,0.00,VWS V14.01,2013-03-19 15:30:00,
2013-03-19 08:35:00,50.0,45.4,30.08,East,90,3.0,5.0,84,0.00,,---,0.00,VWS V14.01,2013-03-19 15:35:00,
2013-03-19 08:40:00,50.4,45.1,30.08,East,92,1.0,5.0,82,0.00,,---,0.00,VWS V14.01,2013-03-19 15:40:00,
2013-03-19 08:45:00,50.7,45.1,30.08,East,97,2.0,3.0,81,0.00,,---,0.00,VWS V14.01,2013-03-19 15:45:00,
2013-03-19 08:50:00,51.1,45.2,30.08,East,96,2.0,5.0,80,0.00,,---,0.00,VWS V14.01,2013-03-19 15:50:00,
2013-03-19 08:55:00,51.5,45.2,30.08,SE,128,1.0,5.0,79,0.00,,---,0.00,VWS V14.01,2013-03-19 15:55:00,
2013-03-19 09:00:00,51.9,45.3,30.08,SE,144,0.0,6.0,78,0.00,,---,0.00,VWS V14.01,2013-03-19 16:00:00,
2013-03-19 09:05:00,52.3,45.0,30.08,ESE,123,3.0,5.0,76,0.00,,---,0.00,VWS V14.01,2013-03-19 16:05:00,
2013-03-19 09:10:00,53.0,45.7,30.08,ESE,121,0.0,5.0,76,0.00,,---,0.00,VWS V14.01,2013-03-19 16:10:00,
2013-03-19 09:15:00,53.6,45.9,30.08,SE,126,5.0,6.0,75,0.00,,---,0.00,VWS V14.01,2013-03-19 16:15:00,
2013-03-19 09:20:00,54.2,45.8,30.08,SE,127,0.0,7.0,73,0.00,,---,0.00,VWS V14.01,2013-03-19 16:20:00,
2013-03-19 09:25:00,54.8,45.2,30.08,ESE,110,2.0,4.0,70,0.00,,---,0.00,VWS V14.01,2013-03-19 16:25:00,
2013-03-19 09:30:00,55.4,45.4,30.08,SE,130,2.0,4.0,69,0.00,,---,0.00,VWS V14.01,2013-03-19 16:30:00,
2013-03-19 09:35:00,55.7,45.3,30.08,ENE,78,3.0,7.0,68,0.00,,---,0.00,VWS V14.01,2013-03-19 16:35:00,
2013-03-19 09:40:00,55.9,45.1,30.08,SE,142,2.0,7.0,67,0.00,,---,0.00,VWS V14.01,2013-03-19 16:40:00,
2013-03-19 09:45:00,56.3,45.5,30.07,ESE,118,5.0,5.0,67,0.00,,---,0.00,VWS V14.01,2013-03-19 16:45:00,
2013-03-19 09:50:00,56.5,44.9,30.07,East,86,4.0,12.0,65,0.00,,---,0.00,VWS V14.01,2013-03-19 16:50:00,
2013-03-19 09:55:00,56.7,44.7,30.07,SE,126,1.0,10.0,64,0.00,,---,0.00,VWS V14.01,2013-03-19 16:55:00,
2013-03-19 10:00:00,57.2,44.7,30.07,ESE,117,7.0,10.0,63,0.00,,---,0.00,VWS V14.01,2013-03-19 17:00:00,
2013-03-19 10:05:00,57.5,44.6,30.07,ESE,103,0.0,9.0,62,0.00,,---,0.00,VWS V14.01,2013-03-19 17:05:00,
2013-03-19 10:10:00,57.9,44.1,30.07,SE,126,4.0,9.0,60,0.00,,---,0.00,VWS V14.01,2013-03-19 17:10:00,
2013-03-19 10:15:00,58.4,44.1,30.08,SE,136,0.0,6.0,59,0.00,,---,0.00,VWS V14.01,2013-03-19 17:15:00,
2013-03-19 10:20:00,59.0,45.2,30.08,SE,134,0.0,6.0,60,0.00,,---,0.00,VWS V14.01,2013-03-19 17:20:00,
2013-03-19 10:25:00,59.5,44.3,30.08,ESE,104,3.0,7.0,57,0.00,,---,0.00,VWS V14.01,2013-03-19 17:25:00,
2013-03-19 10:30:00,60.0,44.7,30.07,ESE,123,0.0,7.0,57,0.00,,---,0.00,VWS V14.01,2013-03-19 17:30:00,
2013-03-19 10:35:00,60.6,44.8,30.08,ESE,103,0.0,5.0,56,0.00,,---,0.00,VWS V14.01,2013-03-19 17:35:00,
2013-03-19 10:40:00,61.3,44.5,30.08,NE,56,1.0,5.0,54,0.00,,---,0.00,VWS V14.01,2013-03-19 17:40:00,
2013-03-19 10:45:00,61.7,44.9,30.08,NE,56,0.0,1.0,54,0.00,,---,0.00,VWS V14.01,2013-03-19 17:45:00,
2013-03-19 10:50:00,62.2,44.9,30.08,NNW,347,0.0,2.0,53,0.00,,---,0.00,VWS V14.01,2013-03-19 17:50:00,
2013-03-19 10:55:00,62.8,45.4,30.08,West,271,1.0,2.0,53,0.00,,---,0.00,VWS V14.01,2013-03-19 17:55:00,
2013-03-19 11:00:00,63.0,45.1,30.08,WNW,294,0.0,2.0,52,0.00,,---,0.00,VWS V14.01,2013-03-19 18:00:00,
2013-03-19 11:05:00,63.4,44.5,30.08,NNE,29,0.0,2.0,50,0.00,,---,0.00,VWS V14.01,2013-03-19 18:05:00,
2013-03-19 11:10:00,63.8,44.3,30.08,NNE,25,0.0,2.0,49,0.00,,---,0.00,VWS V14.01,2013-03-19 18:10:00,
2013-03-19 11:15:00,64.3,44.8,30.08,ENE,61,0.0,0.0,49,0.00,,---,0.00,VWS V14.01,2013-03-19 18:15:00,
2013-03-19 11:20:00,65.4,44.1,30.08,NNE,28,0.0,2.0,46,0.00,,---,0.00,VWS V14.01,2013-03-19 18:20:00,
2013-03-19 11:25:00,66.2,44.2,30.07,East,91,0.0,1.0,45,0.00,,---,0.00,VWS V14.01,2013-03-19 18:25:00,
2013-03-19 11:30:00,66.9,44.3,30.07,NNE,26,0.0,1.0,44,0.00,,---,0.00,VWS V14.01,2013-03-19 18:30:00,
2013-03-19 11:35:00,67.0,44.4,30.08,WSW,244,0.0,2.0,44,0.00,,---,0.00,VWS V14.01,2013-03-19 18:35:00,
2013-03-19 11:40:00,66.8,44.2,30.07,NW,311,0.0,2.0,44,0.00,,---,0.00,VWS V14.01,2013-03-19 18:40:00,
2013-03-19 11:45:00,67.1,44.5,30.07,WSW,250,2.0,2.0,44,0.00,,---,0.00,VWS V14.01,2013-03-19 18:45:00,
2013-03-19 11:50:00,68.0,45.3,30.07,SE,132,0.0,2.0,44,0.00,,---,0.00,VWS V14.01,2013-03-19 18:50:00,
2013-03-19 11:55:00,69.2,45.2,30.08,ESE,121,1.0,1.0,42,0.00,,---,0.00,VWS V14.01,2013-03-19 18:55:00,
2013-03-19 12:00:00,70.0,45.2,30.08,ENE,69,1.0,2.0,41,0.00,,---,0.00,VWS V14.01,2013-03-19 19:00:00,
2013-03-19 12:05:00,70.9,46.0,30.07,ESE,105,1.0,2.0,41,0.00,,---,0.00,VWS V14.01,2013-03-19 19:05:00,
2013-03-19 12:10:00,71.7,46.1,30.07,East,88,0.0,2.0,40,0.00,,---,0.00,VWS V14.01,2013-03-19 19:10:00,
2013-03-19 12:15:00,72.0,45.0,30.07,ESE,115,0.0,3.0,38,0.00,,---,0.00,VWS V14.01,2013-03-19 19:15:00,
2013-03-19 12:20:00,72.0,45.7,30.07,ESE,109,4.0,4.0,39,0.00,,---,0.00,VWS V14.01,2013-03-19 19:20:00,
2013-03-19 12:25:00,72.3,45.3,30.07,ESE,107,0.0,1.0,38,0.00,,---,0.00,VWS V14.01,2013-03-19 19:25:00,
2013-03-19 12:30:00,72.4,45.4,30.07,NNE,22,1.0,4.0,38,0.00,,---,0.00,VWS V14.01,2013-03-19 19:30:00,
2013-03-19 12:35:00,72.6,44.9,30.07,NW,323,2.0,2.0,37,0.00,,---,0.00,VWS V14.01,2013-03-19 19:35:00,
2013-03-19 12:40:00,72.5,44.8,30.07,WNW,296,1.0,3.0,37,0.00,,---,0.00,VWS V14.01,2013-03-19 19:40:00,
2013-03-19 12:45:00,72.0,45.7,30.06,NNE,33,0.0,1.0,39,0.00,,---,0.00,VWS V14.01,2013-03-19 19:45:00,
2013-03-19 12:50:00,72.5,46.2,30.06,NNE,21,0.0,4.0,39,0.00,,---,0.00,VWS V14.01,2013-03-19 19:50:00,
2013-03-19 12:55:00,72.9,45.8,30.06,NNW,343,1.0,2.0,38,0.00,,---,0.00,VWS V14.01,2013-03-19 19:55:00,
2013-03-19 13:00:00,72.6,46.9,30.06,NNW,340,2.0,3.0,40,0.00,,---,0.00,VWS V14.01,2013-03-19 20:00:00,
2013-03-19 13:05:00,72.5,46.2,30.06,NW,319,1.0,4.0,39,0.00,,---,0.00,VWS V14.01,2013-03-19 20:05:00,
2013-03-19 13:10:00,72.1,45.8,30.06,WSW,249,0.0,4.0,39,0.00,,---,0.00,VWS V14.01,2013-03-19 20:10:00,
2013-03-19 13:15:00,72.4,46.7,30.06,NNW,342,1.0,2.0,40,0.00,,---,0.00,VWS V14.01,2013-03-19 20:15:00,
2013-03-19 13:20:00,72.8,46.4,30.06,NNE,20,0.0,3.0,39,0.00,,---,0.00,VWS V14.01,2013-03-19 20:20:00,
2013-03-19 13:25:00,73.0,46.6,30.05,NNW,328,1.0,2.0,39,0.00,,---,0.00,VWS V14.01,2013-03-19 20:25:00,
2013-03-19 13:30:00,73.5,46.4,30.05,ENE,76,0.0,4.0,38,0.00,,---,0.00,VWS V14.01,2013-03-19 20:30:00,
2013-03-19 13:35:00,74.4,47.2,30.05,North,10,3.0,4.0,38,0.00,,---,0.00,VWS V14.01,2013-03-19 20:35:00,
2013-03-19 13:40:00,74.3,46.4,30.05,ESE,123,0.0,4.0,37,0.00,,---,0.00,VWS V14.01,2013-03-19 20:40:00,
2013-03-19 13:45:00,74.1,46.2,30.05,SE,127,7.0,7.0,37,0.00,,---,0.00,VWS V14.01,2013-03-19 20:45:00,
2013-03-19 13:50:00,73.8,45.9,30.05,SE,144,0.0,7.0,37,0.00,,---,0.00,VWS V14.01,2013-03-19 20:50:00,
2013-03-19 13:55:00,74.0,46.8,30.05,SE,138,0.0,3.0,38,0.00,,---,0.00,VWS V14.01,2013-03-19 20:55:00,
2013-03-19 14:00:00,74.2,47.0,30.04,ESE,121,0.0,5.0,38,0.00,,---,0.00,VWS V14.01,2013-03-19 21:00:00,
2013-03-19 14:05:00,74.0,46.1,30.05,SE,136,1.0,4.0,37,0.00,,---,0.00,VWS V14.01,2013-03-19 21:05:00,
2013-03-19 14:10:00,73.4,45.6,30.05,WNW,296,3.0,5.0,37,0.00,,---,0.00,VWS V14.01,2013-03-19 21:10:00,
2013-03-19 14:15:00,72.2,45.9,30.05,WNW,283,4.0,4.0,39,0.00,,---,0.00,VWS V14.01,2013-03-19 21:15:00,
2013-03-19 14:20:00,71.3,44.4,30.05,WSW,251,3.0,7.0,38,0.00,,---,0.00,VWS V14.01,2013-03-19 21:20:00,
2013-03-19 14:25:00,70.7,45.2,30.05,West,275,1.0,7.0,40,0.00,,---,0.00,VWS V14.01,2013-03-19 21:25:00,
2013-03-19 14:30:00,70.6,45.8,30.05,NNW,338,0.0,9.0,41,0.00,,---,0.00,VWS V14.01,2013-03-19 21:30:00,
2013-03-19 14:35:00,70.5,45.0,30.05,NW,317,4.0,4.0,40,0.00,,---,0.00,VWS V14.01,2013-03-19 21:35:00,
2013-03-19 14:40:00,70.2,45.4,30.05,West,273,0.0,7.0,41,0.00,,---,0.00,VWS V14.01,2013-03-19 21:40:00,
2013-03-19 14:45:00,69.7,45.6,30.05,SSW,196,0.0,7.0,42,0.00,,---,0.00,VWS V14.01,2013-03-19 21:45:00,
2013-03-19 14:50:00,69.2,45.8,30.05,West,274,3.0,11.0,43,0.00,,---,0.00,VWS V14.01,2013-03-19 21:50:00,
2013-03-19 14:55:00,68.7,45.3,30.05,WNW,290,0.0,9.0,43,0.00,,---,0.00,VWS V14.01,2013-03-19 21:55:00,
2013-03-19 15:00:00,68.5,45.8,30.05,West,277,10.0,10.0,44,0.00,,---,0.00,VWS V14.01,2013-03-19 22:00:00,
2013-03-19 15:05:00,68.0,44.7,30.05,West,272,4.0,6.0,43,0.00,,---,0.00,VWS V14.01,2013-03-19 22:05:00,
2013-03-19 15:10:00,67.8,44.5,30.05,West,261,0.0,7.0,43,0.00,,---,0.00,VWS V14.01,2013-03-19 22:10:00,
2013-03-19 15:15:00,67.7,44.4,30.05,WSW,242,1.0,3.0,43,0.00,,---,0.00,VWS V14.01,2013-03-19 22:15:00,
2013-03-19 15:20:00,67.4,44.2,30.05,NNW,336,1.0,5.0,43,0.00,,---,0.00,VWS V14.01,2013-03-19 22:20:00,
2013-03-19 15:25:00,67.1,43.9,30.05,West,261,1.0,9.0,43,0.00,,---,0.00,VWS V14.01,2013-03-19 22:25:00,
2013-03-19 15:30:00,66.8,44.2,30.05,West,259,0.0,9.0,44,0.00,,---,0.00,VWS V14.01,2013-03-19 22:30:00,
2013-03-19 15:35:00,66.5,43.9,30.05,WNW,292,9.0,9.0,44,0.00,,---,0.00,VWS V14.01,2013-03-19 22:35:00,
2013-03-19 15:40:00,66.2,44.2,30.05,West,262,0.0,9.0,45,0.00,,---,0.00,VWS V14.01,2013-03-19 22:40:00,
2013-03-19 15:45:00,66.1,43.6,30.05,NW,319,0.0,4.0,44,0.00,,---,0.00,VWS V14.01,2013-03-19 22:45:00,
2013-03-19 15:50:00,66.2,44.2,30.05,West,279,2.0,5.0,45,0.00,,---,0.00,VWS V14.01,2013-03-19 22:50:00,
2013-03-19 15:55:00,66.3,44.3,30.05,WSW,246,2.0,6.0,45,0.00,,---,0.00,VWS V14.01,2013-03-19 22:55:00,
2013-03-19 16:00:00,66.2,44.2,30.06,SW,218,0.0,6.0,45,0.00,,---,0.00,VWS V14.01,2013-03-19 23:00:00,
2013-03-19 16:04:00,66.2,44.2,30.06,WSW,257,0.0,2.0,45,0.00,,---,0.00,VWS V14.01,2013-03-19 23:04:00,
2013-03-19 16:09:00,66.3,44.9,30.06,West,277,0.0,3.0,46,0.00,,---,0.00,VWS V14.01,2013-03-19 23:09:00,
2013-03-19 16:10:00,66.3,44.9,30.06,West,277,0.0,3.0,46,0.00,,---,0.00,VWS V14.01,2013-03-19 23:10:00,
2013-03-19 16:14:00,66.4,45.0,30.06,WNW,287,1.0,2.0,46,0.00,,---,0.00,VWS V14.01,2013-03-19 23:14:00,
2013-03-19 16:19:00,66.3,45.5,30.06,NE,50,0.0,2.0,47,0.00,,---,0.00,VWS V14.01,2013-03-19 23:19:00,
2013-03-19 16:20:00,66.4,45.0,30.06,NE,34,0.0,2.0,46,0.00,,---,0.00,VWS V14.01,2013-03-19 23:20:00,
2013-03-19 16:24:00,66.3,45.5,30.06,WSW,250,0.0,3.0,47,0.00,,---,0.00,VWS V14.01,2013-03-19 23:24:00,
2013-03-19 16:29:00,66.1,45.9,30.06,WSW,249,0.0,4.0,48,0.00,,---,0.00,VWS V14.01,2013-03-19 23:29:00,
2013-03-19 16:30:00,65.9,45.7,30.06,SE,144,0.0,4.0,48,0.00,,---,0.00,VWS V14.01,2013-03-19 23:30:00,
2013-03-19 16:34:00,65.8,45.6,30.06,West,281,0.0,2.0,48,0.00,,---,0.00,VWS V14.01,2013-03-19 23:34:00,
2013-03-19 16:39:00,65.5,45.3,30.06,NW,324,0.0,4.0,48,0.00,,---,0.00,VWS V14.01,2013-03-19 23:39:00,
2013-03-19 16:40:00,65.4,45.8,30.07,NW,315,0.0,4.0,49,0.00,,---,0.00,VWS V14.01,2013-03-19 23:40:00,
2013-03-19 16:44:00,65.3,45.7,30.07,NNW,334,3.0,5.0,49,0.00,,---,0.00,VWS V14.01,2013-03-19 23:44:00,
2013-03-19 16:49:00,65.0,45.4,30.07,SW,221,1.0,5.0,49,0.00,,---,0.00,VWS V14.01,2013-03-19 23:49:00,
2013-03-19 16:50:00,64.9,45.3,30.07,SW,219,0.0,5.0,49,0.00,,---,0.00,VWS V14.01,2013-03-19 23:50:00,
2013-03-19 16:54:00,64.8,45.2,30.07,SW,225,0.0,4.0,49,0.00,,---,0.00,VWS V14.01,2013-03-19 23:54:00,
2013-03-19 16:59:00,64.7,45.7,30.07,SSW,196,6.0,6.0,50,0.00,,---,0.00,VWS V14.01,2013-03-19 23:59:00,
2013-03-19 17:00:00,64.5,45.5,30.07,WNW,289,1.0,6.0,50,0.00,,---,0.00,VWS V14.01,2013-03-20 00:00:00,
2013-03-19 17:04:00,64.3,45.8,30.07,SW,233,1.0,5.0,51,0.00,,---,0.00,VWS V14.01,2013-03-20 00:04:00,
2013-03-19 17:09:00,64.0,45.5,30.07,West,263,3.0,5.0,51,0.00,,---,0.00,VWS V14.01,2013-03-20 00:09:00,
2013-03-19 17:10:00,63.9,45.4,30.06,West,261,1.0,5.0,51,0.00,,---,0.00,VWS V14.01,2013-03-20 00:10:00,
2013-03-19 17:14:00,63.9,45.4,30.07,West,273,0.0,2.0,51,0.00,,---,0.00,VWS V14.01,2013-03-20 00:14:00,
2013-03-19 17:19:00,63.8,44.8,30.08,SW,227,6.0,6.0,50,0.00,,---,0.00,VWS V14.01,2013-03-20 00:19:00,
2013-03-19 17:20:00,63.7,44.2,30.08,SSW,208,0.0,7.0,49,0.00,,---,0.00,VWS V14.01,2013-03-20 00:20:00,
2013-03-19 17:24:00,63.6,42.5,30.08,SSW,203,4.0,6.0,46,0.00,,---,0.00,VWS V14.01,2013-03-20 00:24:00,
2013-03-19 17:29:00,63.0,41.3,30.08,SSW,201,3.0,13.0,45,0.00,,---,0.00,VWS V14.01,2013-03-20 00:29:00,
2013-03-19 17:30:00,62.9,40.7,30.08,SSW,208,1.0,13.0,44,0.00,,---,0.00,VWS V14.01,2013-03-20 00:30:00,
2013-03-19 17:34:00,62.7,39.9,30.08,WSW,250,3.0,4.0,43,0.00,,---,0.00,VWS V14.01,2013-03-20 00:34:00,
2013-03-19 17:39:00,62.2,40.0,30.08,West,265,4.0,11.0,44,0.00,,---,0.00,VWS V14.01,2013-03-20 00:39:00,
2013-03-19 17:40:00,62.0,39.9,30.08,WNW,289,0.0,11.0,44,0.00,,---,0.00,VWS V14.01,2013-03-20 00:40:00,
2013-03-19 17:44:00,61.8,40.3,30.09,WSW,238,3.0,5.0,45,0.00,,---,0.00,VWS V14.01,2013-03-20 00:44:00,
2013-03-19 17:49:00,61.5,39.4,30.09,West,259,2.0,7.0,44,0.00,,---,0.00,VWS V14.01,2013-03-20 00:49:00,
2013-03-19 17:50:00,61.3,39.2,30.09,WSW,246,4.0,7.0,44,0.00,,---,0.00,VWS V14.01,2013-03-20 00:50:00,
2013-03-19 17:54:00,61.1,39.0,30.09,SSW,198,3.0,9.0,44,0.00,,---,0.00,VWS V14.01,2013-03-20 00:54:00,
2013-03-19 17:59:00,60.9,39.4,30.08,SW,221,0.0,9.0,45,0.00,,---,0.00,VWS V14.01,2013-03-20 00:59:00,
2013-03-19 18:00:00,60.8,39.3,30.08,WSW,244,0.0,9.0,45,0.00,,---,0.00,VWS V14.01,2013-03-20 01:00:00,
2013-03-19 18:04:00,60.6,39.7,30.08,West,278,10.0,10.0,46,0.00,,---,0.00,VWS V14.01,2013-03-20 01:04:00,
2013-03-19 18:09:00,60.5,39.6,30.08,South,182,3.0,10.0,46,0.00,,---,0.00,VWS V14.01,2013-03-20 01:09:00,
2013-03-19 18:10:00,60.5,40.2,30.08,WSW,243,3.0,10.0,47,0.00,,---,0.00,VWS V14.01,2013-03-20 01:10:00,
2013-03-19 18:14:00,60.4,40.1,30.08,SSW,192,5.0,6.0,47,0.00,,---,0.00,VWS V14.01,2013-03-20 01:14:00,
2013-03-19 18:19:00,60.3,41.1,30.08,WSW,256,3.0,6.0,49,0.00,,---,0.00,VWS V14.01,2013-03-20 01:19:00,
2013-03-19 18:20:00,60.3,41.1,30.08,West,262,1.0,6.0,49,0.00,,---,0.00,VWS V14.01,2013-03-20 01:20:00,
2013-03-19 18:24:00,60.3,41.1,30.08,West,270,2.0,2.0,49,0.00,,---,0.00,VWS V14.01,2013-03-20 01:24:00,
2013-03-19 18:29:00,60.2,41.5,30.08,SW,215,1.0,4.0,50,0.00,,---,0.00,VWS V14.01,2013-03-20 01:29:00,
2013-03-19 18:30:00,60.1,41.4,30.09,West,264,4.0,7.0,50,0.00,,---,0.00,VWS V14.01,2013-03-20 01:30:00,
2013-03-19 18:34:00,59.9,41.2,30.09,West,269,7.0,7.0,50,0.00,,---,0.00,VWS V14.01,2013-03-20 01:34:00,
2013-03-19 18:39:00,59.2,40.6,30.09,West,279,3.0,12.0,50,0.00,,---,0.00,VWS V14.01,2013-03-20 01:39:00,
2013-03-19 18:40:00,59.0,40.4,30.09,WSW,254,8.0,12.0,50,0.00,,---,0.00,VWS V14.01,2013-03-20 01:40:00,
2013-03-19 18:44:00,58.5,39.9,30.09,SW,214,3.0,9.0,50,0.00,,---,0.00,VWS V14.01,2013-03-20 01:44:00,
2013-03-19 18:50:00,57.1,35.4,30.10,West,270,5.0,15.0,44,0.00,,---,0.00,VWS V14.01,2013-03-20 01:50:00,
2013-03-19 19:00:00,55.9,33.2,30.10,West,270,5.0,14.0,42,0.00,,---,0.00,VWS V14.01,2013-03-20 02:00:00,
2013-03-19 19:10:00,54.1,36.4,30.11,WSW,248,3.0,15.0,51,0.00,,---,0.00,VWS V14.01,2013-03-20 02:10:00,
2013-03-19 19:20:00,52.1,39.1,30.11,WSW,248,2.0,18.0,61,0.01,,---,0.01,VWS V14.01,2013-03-20 02:20:00,
2013-03-19 19:30:00,51.1,40.5,30.11,NNW,338,1.0,4.0,67,0.01,,---,0.01,VWS V14.01,2013-03-20 02:30:00,
2013-03-19 19:40:00,50.6,42.3,30.11,NNE,22,0.0,1.0,73,0.02,,---,0.02,VWS V14.01,2013-03-20 02:40:00,
2013-03-19 19:50:00,49.7,43.1,30.11,SE,135,0.0,3.0,78,0.03,,---,0.03,VWS V14.01,2013-03-20 02:50:00,
2013-03-19 20:00:00,48.6,43.4,30.11,SE,135,1.0,3.0,82,0.03,,---,0.03,VWS V14.01,2013-03-20 03:00:00,
2013-03-19 20:10:00,48.2,43.6,30.11,SE,135,0.0,2.0,84,0.04,,---,0.04,VWS V14.01,2013-03-20 03:10:00,
2013-03-19 20:20:00,48.0,42.5,30.11,ESE,112,0.0,3.0,81,0.04,,---,0.04,VWS V14.01,2013-03-20 03:20:00,
2013-03-19 20:30:00,47.4,42.8,30.11,ESE,112,0.0,1.0,84,0.03,,---,0.04,VWS V14.01,2013-03-20 03:30:00,
2013-03-19 20:40:00,46.9,42.9,30.11,ESE,112,0.0,1.0,86,0.04,,---,0.05,VWS V14.01,2013-03-20 03:40:00,
2013-03-19 20:50:00,46.8,43.1,30.10,ESE,112,0.0,1.0,87,0.03,,---,0.05,VWS V14.01,2013-03-20 03:50:00,
2013-03-19 21:00:00,46.6,42.9,30.10,ESE,112,0.0,1.0,87,0.02,,---,0.05,VWS V14.01,2013-03-20 04:00:00,
2013-03-19 21:10:00,46.5,43.1,30.10,ESE,112,0.0,1.0,88,0.02,,---,0.05,VWS V14.01,2013-03-20 04:10:00,
2013-03-19 21:20:00,46.6,43.2,30.09,ESE,112,0.0,1.0,88,0.01,,---,0.05,VWS V14.01,2013-03-20 04:20:00,
2013-03-19 21:30:00,46.5,43.1,30.09,SE,135,0.0,3.0,88,0.01,,---,0.05,VWS V14.01,2013-03-20 04:30:00,
2013-03-19 21:40:00,46.6,42.9,30.07,SE,135,0.0,4.0,87,0.01,,---,0.05,VWS V14.01,2013-03-20 04:40:00,
2013-03-19 21:50:00,46.7,43.0,30.07,SE,135,0.0,2.0,87,0.00,,---,0.05,VWS V14.01,2013-03-20 04:50:00,
2013-03-19 22:00:00,47.0,43.6,30.08,SE,135,0.0,2.0,88,0.00,,---,0.05,VWS V14.01,2013-03-20 05:00:00,
2013-03-19 22:10:00,47.5,44.1,30.09,SE,135,1.0,3.0,88,0.00,,---,0.05,VWS V14.01,2013-03-20 05:10:00,
2013-03-19 22:20:00,48.0,44.3,30.09,SE,135,1.0,3.0,87,0.00,,---,0.05,VWS V14.01,2013-03-20 05:20:00,
2013-03-19 22:30:00,48.1,44.7,30.09,SE,135,0.0,1.0,88,0.00,,---,0.05,VWS V14.01,2013-03-20 05:30:00,
2013-03-19 22:40:00,48.1,44.7,30.09,SE,135,0.0,1.0,88,0.00,,---,0.05,VWS V14.01,2013-03-20 05:40:00,
2013-03-19 22:50:00,48.0,44.6,30.08,SE,135,0.0,1.0,88,0.00,,---,0.05,VWS V14.01,2013-03-20 05:50:00,
2013-03-19 23:00:00,48.2,45.1,30.09,SE,135,0.0,1.0,89,0.00,,---,0.05,VWS V14.01,2013-03-20 06:00:00,
2013-03-19 23:10:00,48.3,45.2,30.08,SE,135,0.0,0.0,89,0.00,,---,0.05,VWS V14.01,2013-03-20 06:10:00,
2013-03-19 23:20:00,48.7,45.9,30.08,SE,135,0.0,1.0,90,0.00,,---,0.05,VWS V14.01,2013-03-20 06:20:00,
2013-03-19 23:30:00,48.8,46.0,30.08,SE,135,0.0,1.0,90,0.00,,---,0.05,VWS V14.01,2013-03-20 06:30:00,
2013-03-19 23:40:00,49.0,46.2,30.08,SE,135,0.0,0.0,90,0.00,,---,0.05,VWS V14.01,2013-03-20 06:40:00,
2013-03-19 23:50:00,49.0,46.2,30.08,SE,135,0.0,0.0,90,0.00,,---,0.05,VWS V14.01,2013-03-20 06:50:00,